North Highlands, CA

10:28 AM PST on February 10, 2016 (GMT -0800)
McClellan

Weather History for KMCC - April, 2014

Change the Weather History Date:

Thursday, April 24, 2014

  Actual Average (KMHR) Record (KMHR)
Temperature  
Mean Temperature 60 °F -  
Max Temperature 71 °F 69 °F 86 °F (2004)
Min Temperature 50 °F 44 °F 35 °F (2008)
Degree Days  
Heating Degree Days 4    
Growing Degree Days 10 (Base 50)    
Moisture  
Dew Point 48 °F    
Average Humidity 66    
Maximum Humidity 88    
Minimum Humidity 33    
Precipitation  
Precipitation 0.00 in - - ()
Sea Level Pressure  
Sea Level Pressure 30.02 in    
Wind  
Wind Speed 8 mph (SSE)    
Max Wind Speed 14 mph    
Max Gust Speed 20 mph    
Visibility 10 miles    
Events Rain    
Averages and records for this station are not official NWS values.
T = Trace of Precipitation, MM = Missing Value Source: NWS Daily Summary

Daily Weather History Graph

Daily Weather History Graph

Search for Another Location

Airport or City:

Trip Planner

Search our weather history database for the weather conditions in past years. The results will help you decide how hot, cold, wet, or windy it might be!

Date:

Astronomy

Apr. 24, 2014 Rise Set
Actual Time 6:16 AM PDT 7:51 PM PDT
Civil Twilight 5:48 AM PDT 8:19 PM PDT
Nautical Twilight 5:14 AM PDT 8:53 PM PDT
Astronomical Twilight 4:39 AM PDT 9:29 PM PDT
Moon 3:27 AM PDT (4/24) 3:15 PM PDT (4/24)
Length of Visible Light 14h 30m
Length of Day
13h 34m
Waning Crescent, 23% of the Moon is Illuminated
Apr 24
Waning Crescent
Apr 28
New
May 6
First Quarter
May 14
Full
May 21
Last Quarter

Hourly Weather History & Observations

Time (PDT) Temp. Dew Point Humidity Pressure Visibility Wind Dir Wind Speed Gust Speed Precip Events Conditions
12:15 AM 55.4 °F 46.4 °F 72% 30.06 in 10.0 mi SE 5.8 mph - N/A   Clear
12:35 AM 55.4 °F 46.4 °F 72% 30.06 in 10.0 mi SE 6.9 mph - N/A   Clear
12:55 AM 53.6 °F 46.4 °F 77% 30.07 in 10.0 mi SSE 4.6 mph - N/A   Clear
1:15 AM 53.6 °F 46.4 °F 77% 30.07 in 10.0 mi SSE 5.8 mph - N/A   Clear
1:35 AM 53.6 °F 46.4 °F 77% 30.07 in 10.0 mi SSE 5.8 mph - N/A   Clear
1:55 AM 53.6 °F 46.4 °F 77% 30.06 in 10.0 mi SE 6.9 mph - N/A   Clear
2:15 AM 51.8 °F 46.4 °F 82% 30.06 in 10.0 mi SE 8.1 mph - N/A   Clear
2:35 AM 53.6 °F 46.4 °F 77% 30.06 in 10.0 mi SE 6.9 mph - N/A   Clear
2:55 AM 51.8 °F 46.4 °F 82% 30.06 in 10.0 mi SE 8.1 mph - N/A   Clear
3:15 AM 51.8 °F 46.4 °F 82% 30.06 in 10.0 mi SE 9.2 mph - N/A   Clear
3:35 AM 50.0 °F 46.4 °F 87% 30.06 in 10.0 mi SSE 6.9 mph - N/A   Clear
3:55 AM 50.0 °F 46.4 °F 87% 30.06 in 10.0 mi ESE 6.9 mph - N/A   Clear
4:15 AM 50.0 °F 44.6 °F 82% 30.05 in 10.0 mi SE 8.1 mph - N/A   Clear
4:35 AM 50.0 °F 44.6 °F 82% 30.05 in 10.0 mi SE 8.1 mph - N/A   Clear
4:55 AM 51.8 °F 46.4 °F 82% 30.05 in 10.0 mi SE 6.9 mph - N/A   Clear
5:15 AM 51.8 °F 46.4 °F 82% 30.05 in 10.0 mi SSE 6.9 mph - N/A   Clear
5:35 AM 50.0 °F 46.4 °F 87% 30.04 in 10.0 mi SE 9.2 mph - N/A   Clear
5:55 AM 50.0 °F 46.4 °F 87% 30.05 in 10.0 mi SSE 5.8 mph - N/A   Clear
6:15 AM 51.8 °F 46.4 °F 82% 30.05 in 10.0 mi SSE 8.1 mph - N/A   Clear
6:35 AM 51.8 °F 46.4 °F 82% 30.06 in 10.0 mi SE 6.9 mph - N/A   Clear
6:55 AM 51.8 °F 46.4 °F 82% 30.06 in 10.0 mi SE 8.1 mph - N/A   Clear
7:15 AM 53.6 °F 46.4 °F 77% 30.06 in 10.0 mi SE 8.1 mph - N/A   Clear
7:35 AM 53.6 °F 48.2 °F 82% 30.07 in 10.0 mi SE 8.1 mph - N/A   Clear
7:55 AM 53.6 °F 48.2 °F 82% 30.08 in 10.0 mi SE 4.6 mph - N/A   Clear
8:15 AM 55.4 °F 48.2 °F 77% 30.08 in 10.0 mi ESE 6.9 mph - N/A   Clear
8:35 AM 55.4 °F 48.2 °F 77% 30.08 in 10.0 mi ESE 10.4 mph - N/A   Clear
8:55 AM 57.2 °F 48.2 °F 72% 30.09 in 10.0 mi ESE 8.1 mph - N/A   Clear
9:15 AM 59.0 °F 48.2 °F 67% 30.08 in 10.0 mi SE 11.5 mph - N/A   Clear
9:35 AM 59.0 °F 48.2 °F 67% 30.08 in 10.0 mi SE 13.8 mph - N/A   Clear
9:55 AM 60.8 °F 48.2 °F 63% 30.09 in 10.0 mi SE 11.5 mph - N/A   Clear
10:15 AM 62.6 °F 50.0 °F 63% 30.09 in 10.0 mi SSE 11.5 mph - N/A   Clear
10:35 AM 62.6 °F 50.0 °F 63% 30.09 in 10.0 mi SSE 9.2 mph - N/A   Clear
10:55 AM 64.4 °F 50.0 °F 59% 30.09 in 10.0 mi SSE 11.5 mph - N/A   Clear
11:15 AM 64.4 °F 50.0 °F 59% 30.09 in 10.0 mi SE 11.5 mph - N/A   Clear
11:35 AM 64.4 °F 48.2 °F 56% 30.08 in 10.0 mi South 8.1 mph - N/A   Clear
11:55 AM 66.2 °F 46.4 °F 49% 30.08 in 10.0 mi South 8.1 mph - N/A   Clear
12:15 PM 66.2 °F 46.4 °F 49% 30.07 in 10.0 mi SSW 6.9 mph - N/A   Clear
12:35 PM 66.2 °F 46.4 °F 49% 30.06 in 10.0 mi South 8.1 mph - N/A   Clear
12:55 PM 68.0 °F 46.4 °F 46% 30.05 in 10.0 mi SSE 6.9 mph - N/A   Clear
1:15 PM 68.0 °F 46.4 °F 46% 30.05 in 10.0 mi SSW 9.2 mph - N/A   Clear
1:35 PM 68.0 °F 46.4 °F 46% 30.03 in 10.0 mi SSE 8.1 mph - N/A   Clear
1:55 PM 71.6 °F 46.4 °F 41% 30.04 in 10.0 mi South 11.5 mph - N/A   Clear
2:15 PM 71.6 °F 46.4 °F 41% 30.03 in 10.0 mi South 8.1 mph 18.4 mph N/A   Clear
2:35 PM 71.6 °F 44.6 °F 38% 30.02 in 10.0 mi SSW 11.5 mph 16.1 mph N/A   Clear
2:55 PM 71.6 °F 46.4 °F 41% 30.01 in 10.0 mi South 8.1 mph - N/A   Clear
3:15 PM 71.6 °F 44.6 °F 38% 30.00 in 10.0 mi SSW 11.5 mph - N/A   Clear
3:35 PM 71.6 °F 44.6 °F 38% 29.99 in 10.0 mi South 9.2 mph - N/A   Clear
3:55 PM 71.6 °F 44.6 °F 38% 29.98 in 10.0 mi SSW 10.4 mph 17.3 mph N/A   Clear
4:15 PM 71.6 °F 41.0 °F 33% 29.98 in 10.0 mi South 8.1 mph - N/A   Clear
4:35 PM 71.6 °F 46.4 °F 41% 29.97 in 10.0 mi SSW 9.2 mph - N/A   Clear
4:55 PM 71.6 °F 48.2 °F 43% 29.96 in 10.0 mi South 12.7 mph - N/A   Clear
5:15 PM 71.6 °F 50.0 °F 46% 29.96 in 10.0 mi South 11.5 mph - N/A   Clear
5:35 PM 69.8 °F 50.0 °F 49% 29.96 in 10.0 mi SSW 12.7 mph 17.3 mph N/A   Clear
5:55 PM 68.0 °F 50.0 °F 52% 29.95 in 10.0 mi SW 13.8 mph - N/A   Clear
6:15 PM 68.0 °F 51.8 °F 56% 29.95 in 10.0 mi SSW 10.4 mph 19.6 mph N/A   Clear
6:35 PM 68.0 °F 51.8 °F 56% 29.95 in 10.0 mi SW 13.8 mph 19.6 mph N/A   Clear
6:55 PM 66.2 °F 51.8 °F 60% 29.95 in 10.0 mi SSW 13.8 mph - N/A   Clear
7:15 PM 66.2 °F 51.8 °F 60% 29.94 in 10.0 mi SSW 9.2 mph - N/A   Clear
7:35 PM 64.4 °F 51.8 °F 64% 29.94 in 10.0 mi SSW 11.5 mph - N/A   Partly Cloudy
7:55 PM 64.4 °F 51.8 °F 64% 29.95 in 10.0 mi SSW 10.4 mph - N/A   Partly Cloudy
8:15 PM 64.4 °F 51.8 °F 64% 29.95 in 10.0 mi SSW 8.1 mph - N/A   Clear
8:35 PM 64.4 °F 50.0 °F 59% 29.96 in 10.0 mi SW 11.5 mph - N/A   Clear
8:55 PM 64.4 °F 50.0 °F 59% 29.96 in 10.0 mi SSW 6.9 mph - N/A Rain Light Rain
9:15 PM 62.6 °F 50.0 °F 63% 29.96 in 10.0 mi South 6.9 mph - N/A Rain Light Rain
9:35 PM 62.6 °F 53.6 °F 72% 29.97 in 9.0 mi SSE 11.5 mph - N/A Rain Light Rain
9:55 PM 60.8 °F 53.6 °F 77% 29.97 in 10.0 mi South 8.1 mph - N/A Rain Light Rain
10:15 PM 59.0 °F 53.6 °F 82% 29.96 in 10.0 mi SSE 8.1 mph - N/A   Clear
10:35 PM 59.0 °F 53.6 °F 82% 29.97 in 10.0 mi South 9.2 mph - N/A   Clear
10:55 PM 59.0 °F 53.6 °F 82% 29.97 in 10.0 mi SSE 8.1 mph - N/A Rain Light Rain
11:15 PM 57.2 °F 53.6 °F 88% 29.96 in 10.0 mi SSE 8.1 mph - N/A Rain Light Rain
11:35 PM 57.2 °F 53.6 °F 88% 29.96 in 10.0 mi SSE 9.2 mph - N/A   Mostly Cloudy
11:55 PM 57.2 °F 53.6 °F 88% 29.97 in 10.0 mi South 9.2 mph - N/A   Overcast